�N����,����,�~����,�C��,���x,�C��,����,���ϕ���,�ő�u�ԕ���,�ő厞����,���˗�,�I�_���x,�n�����x,�ő啗���N��,DTYPE
"18/08/23","00:10",0.0,28.0,72.7,1004.5,110.5,1.3,4.1,91.2,0.00,22.7,28.3,"00:07:12",1
"18/08/23","00:20",0.0,28.0,72.8,1004.3,102.7,1.6,3.9,110.1,0.00,22.7,28.1,"00:12:24",1
"18/08/23","00:30",0.0,28.0,72.9,1004.5,116.2,1.3,2.8,150.7,0.00,22.7,28.0,"00:21:44",1
"18/08/23","00:40",0.0,28.1,72.5,1004.3,95.1,1.5,3.2,97.4,0.00,22.7,28.1,"00:32:24",1
"18/08/23","00:50",0.0,28.1,72.9,1004.3,88.7,1.5,4.0,77.1,0.00,22.8,28.0,"00:49:12",1
"18/08/23","01:00",0.0,28.0,73.0,1004.3,100.6,1.2,3.6,102.7,0.00,22.7,27.9,"00:58:16",1
"18/08/23","01:10",0.0,28.1,73.5,1003.8,99.4,1.5,4.1,156.3,0.00,23.0,27.7,"01:09:52",1
"18/08/23","01:20",0.0,28.1,73.8,1003.6,103.3,2.0,4.3,111.4,0.00,23.0,27.8,"01:14:48",1
"18/08/23","01:30",0.0,28.0,74.1,1003.6,97.9,1.7,5.1,100.7,0.00,23.0,27.9,"01:28:00",1
"18/08/23","01:40",0.0,28.0,74.7,1003.8,99.5,1.8,4.9,109.1,0.00,23.1,27.7,"01:35:44",1
"18/08/23","01:50",0.0,28.0,75.1,1003.4,102.3,1.6,5.5,114.7,0.00,23.2,27.8,"01:40:08",1
"18/08/23","02:00",0.0,28.0,75.3,1003.6,100.1,1.6,4.0,119.8,0.00,23.3,27.8,"01:54:32",1
"18/08/23","02:10",0.0,28.0,75.6,1003.8,101.8,1.5,3.5,84.6,0.00,23.3,27.7,"02:05:12",1
"18/08/23","02:20",0.0,28.0,75.6,1003.6,94.8,1.5,3.4,150.9,0.00,23.3,27.7,"02:11:52",1
"18/08/23","02:30",0.0,28.0,75.3,1003.4,109.2,1.7,4.2,111.2,0.00,23.3,27.7,"02:24:48",1
"18/08/23","02:40",0.0,28.1,74.9,1003.1,93.7,1.3,2.6,113.9,0.00,23.3,27.4,"02:35:12",1
"18/08/23","02:50",0.0,28.1,74.6,1003.4,99.4,1.8,4.4,108.6,0.00,23.2,27.5,"02:41:36",1
"18/08/23","03:00",0.0,28.1,75.0,1003.4,101.6,1.8,4.0,119.8,0.00,23.3,27.5,"02:51:04",1
"18/08/23","03:10",0.0,28.0,75.5,1003.4,113.9,1.7,4.9,124.3,0.00,23.3,27.6,"03:09:36",1
"18/08/23","03:20",0.0,27.9,75.7,1003.4,110.6,1.3,4.1,116.4,0.00,23.3,27.5,"03:12:32",1
"18/08/23","03:30",0.0,28.0,75.8,1002.9,86.0,1.7,5.0,121.7,0.00,23.4,27.4,"03:20:02",1
"18/08/23","03:40",0.0,27.9,75.8,1003.1,97.8,1.5,3.6,62.1,0.00,23.3,27.5,"03:37:28",1
"18/08/23","03:50",0.0,27.8,76.1,1002.9,113.3,1.5,3.7,122.1,0.00,23.2,27.4,"03:40:48",1
"18/08/23","04:00",0.0,27.8,76.3,1003.1,107.8,1.5,3.5,120.7,0.00,23.3,27.5,"03:51:52",1
"18/08/23","04:10",0.0,27.8,76.4,1003.4,102.4,1.7,3.3,122.4,0.00,23.3,27.4,"04:06:40",1
"18/08/23","04:20",0.0,27.7,76.7,1003.1,103.3,1.3,3.4,96.8,0.00,23.3,27.2,"04:12:48",1
"18/08/23","04:30",0.0,27.8,76.9,1003.1,107.6,1.6,3.3,98.4,0.00,23.4,27.2,"04:20:56",1
"18/08/23","04:40",0.0,27.7,77.7,1003.4,85.7,1.5,3.2,121.0,0.00,23.5,27.2,"04:35:04",1
"18/08/23","04:50",0.0,27.6,78.3,1003.1,99.2,1.3,3.5,89.1,0.00,23.5,27.2,"04:44:16",1
"18/08/23","05:00",0.0,27.8,78.0,1003.4,80.3,1.5,3.6,92.6,0.00,23.7,27.3,"04:52:56",1
"18/08/23","05:10",0.0,27.8,77.4,1002.9,95.7,1.5,4.0,95.3,0.00,23.5,27.2,"05:02:40",1
"18/08/23","05:20",0.0,27.9,77.4,1003.1,90.2,1.6,3.7,91.1,0.00,23.6,27.1,"05:17:04",1
"18/08/23","05:30",0.0,28.0,77.0,1003.1,82.4,1.3,3.4,91.6,0.00,23.6,27.4,"05:27:52",1
"18/08/23","05:40",0.0,28.0,76.8,1002.9,101.4,1.5,5.2,89.0,0.00,23.6,27.2,"05:39:12",1
"18/08/23","05:50",0.0,28.0,77.1,1003.1,94.5,1.2,3.1,37.5,0.00,23.7,27.1,"05:45:44",1
"18/08/23","06:00",0.0,27.9,77.7,1003.1,90.3,1.3,3.4,104.2,0.00,23.7,27.1,"05:58:40",1
"18/08/23","06:10",0.0,27.9,78.0,1002.9,81.4,1.5,4.0,114.7,0.00,23.7,27.0,"06:06:32",1
"18/08/23","06:20",0.0,27.9,78.0,1003.1,96.2,1.6,4.1,80.7,0.00,23.7,27.1,"06:17:12",1
"18/08/23","06:30",0.0,28.0,78.2,1002.6,76.8,1.5,4.2,79.6,0.00,23.9,27.1,"06:27:28",1
"18/08/23","06:40",0.0,27.9,78.9,1002.9,86.4,1.3,4.0,112.1,0.00,23.9,27.2,"06:31:20",1
"18/08/23","06:50",0.4,27.7,80.9,1002.6,90.8,1.3,3.6,127.3,0.04,24.2,27.1,"06:40:40",1
"18/08/23","07:00",0.0,27.0,83.6,1002.9,104.0,1.1,2.4,108.4,0.01,24.0,27.1,"06:53:52",1
"18/08/23","07:10",0.0,27.4,83.4,1002.6,106.4,1.5,3.4,108.5,0.05,24.4,27.1,"07:03:04",1
"18/08/23","07:20",0.0,28.4,80.2,1002.6,90.5,1.3,3.1,85.4,0.14,24.7,27.2,"07:19:44",1
"18/08/23","07:30",0.0,28.1,80.0,1002.9,94.9,1.6,4.1,91.3,0.08,24.4,27.2,"07:23:12",1
"18/08/23","07:40",0.0,28.2,79.6,1002.4,91.5,1.5,4.4,68.0,0.06,24.4,27.2,"07:35:20",1
"18/08/23","07:50",0.0,28.3,79.4,1002.9,100.3,1.3,3.3,119.2,0.05,24.4,27.0,"07:40:32",1
"18/08/23","08:00",0.0,28.8,78.3,1002.9,103.3,1.8,4.8,58.7,0.13,24.7,27.2,"07:50:08",1
"18/08/23","08:10",0.0,29.3,74.9,1002.4,119.5,1.5,3.9,108.0,0.13,24.4,27.4,"08:00:02",1
"18/08/23","08:20",0.0,29.1,74.6,1002.6,103.3,1.7,3.9,97.5,0.05,24.2,27.4,"08:12:56",1
"18/08/23","08:30",0.0,29.4,74.3,1001.9,106.6,1.6,4.2,174.9,0.13,24.4,27.5,"08:27:52",1
"18/08/23","08:40",0.0,30.0,71.8,1001.7,105.7,1.7,4.1,144.1,0.19,24.4,27.8,"08:39:36",1
"18/08/23","08:50",0.0,30.2,71.2,1002.2,114.9,1.7,3.9,80.3,0.23,24.4,27.8,"08:43:12",1
"18/08/23","09:00",0.0,29.9,70.4,1001.9,102.9,1.8,4.4,115.4,0.11,24.0,27.9,"08:56:32",1
"18/08/23","09:10",0.0,30.2,72.9,1001.7,100.8,2.1,4.0,119.3,0.16,24.8,27.9,"09:08:00",1
"18/08/23","09:20",0.0,30.4,69.8,1002.2,110.7,1.8,3.7,136.3,0.24,24.3,28.2,"09:19:04",1
"18/08/23","09:30",0.0,29.9,71.1,1002.2,115.4,1.8,3.7,136.1,0.09,24.1,28.0,"09:20:40",1
"18/08/23","09:40",0.0,29.2,74.0,1001.7,133.7,2.2,6.2,126.3,0.04,24.1,28.0,"09:32:08",1
"18/08/23","09:50",0.2,28.1,79.9,1001.9,121.8,2.1,5.9,105.7,0.02,24.3,27.8,"09:45:04",1
"18/08/23","10:00",0.4,27.6,82.8,1002.2,126.7,1.5,4.7,92.9,0.04,24.5,27.8,"09:53:36",1
"18/08/23","10:10",0.0,27.5,85.0,1002.2,113.7,1.5,5.4,125.9,0.06,24.8,27.7,"10:08:40",1
"18/08/23","10:20",0.0,28.1,82.9,1002.2,96.7,1.5,3.3,68.2,0.13,25.0,27.6,"10:15:36",1
"18/08/23","10:30",0.0,28.5,80.8,1001.7,93.8,2.0,4.8,120.8,0.13,24.9,27.7,"10:29:04",1
"18/08/23","10:40",0.0,29.4,79.4,1001.9,102.5,1.8,4.5,92.8,0.30,25.5,27.8,"10:35:04",1
"18/08/23","10:50",0.0,30.2,76.8,1001.5,107.1,1.7,5.1,107.0,0.53,25.7,28.3,"10:48:16",1
"18/08/23","11:00",0.0,29.4,76.6,1001.7,93.6,1.8,3.7,109.4,0.21,24.9,28.3,"10:58:32",1
"18/08/23","11:10",0.0,29.4,76.6,1001.5,93.8,2.2,4.9,60.4,0.23,24.9,28.4,"11:00:32",1
"18/08/23","11:20",0.0,30.3,74.1,1001.5,102.5,1.7,4.2,120.1,0.32,25.2,28.5,"11:15:36",1
"18/08/23","11:30",0.2,30.8,71.9,1001.5,111.2,2.1,7.4,105.5,0.30,25.2,28.5,"11:28:08",1
"18/08/23","11:40",0.0,30.4,71.7,1001.0,94.9,2.1,4.2,117.5,0.25,24.8,28.8,"11:39:28",1
"18/08/23","11:50",0.0,30.7,70.6,1001.0,104.2,2.3,5.5,125.7,0.25,24.8,28.8,"11:41:44",1
"18/08/23","12:00",0.0,30.5,71.5,1000.8,102.6,1.8,4.4,98.2,0.22,24.8,28.9,"11:59:52",1
"18/08/23","12:10",0.0,31.2,70.4,1001.0,103.1,2.1,4.2,134.1,0.48,25.2,29.1,"12:01:04",1
"18/08/23","12:20",0.0,30.3,71.8,1001.5,96.7,2.6,5.7,114.6,0.30,24.7,29.2,"12:10:08",1
"18/08/23","12:30",0.0,30.0,73.3,1001.0,105.1,2.3,5.9,125.6,0.33,24.7,29.2,"12:21:20",1
"18/08/23","12:40",0.0,28.6,80.8,1000.3,104.9,2.2,5.5,107.4,0.18,25.0,29.2,"12:37:36",1
"18/08/23","12:50",0.0,28.8,78.8,1000.0,114.2,2.2,5.4,100.7,0.17,24.8,29.1,"12:48:56",1
"18/08/23","13:00",0.0,28.0,82.9,1000.0,111.1,2.2,4.2,142.3,0.12,24.9,29.1,"12:58:16",1
"18/08/23","13:10",0.0,27.9,85.9,999.6,94.9,2.1,4.4,97.9,0.22,25.4,28.9,"13:04:40",1
"18/08/23","13:20",0.0,28.6,85.4,999.3,107.5,1.5,4.5,132.4,0.25,25.9,28.9,"13:11:28",1
"18/08/23","13:30",0.0,28.4,84.2,998.6,99.7,1.6,3.7,87.9,0.17,25.5,29.0,"13:25:12",1
"18/08/23","13:40",0.0,29.3,80.4,998.9,93.4,1.5,3.6,100.9,0.22,25.6,29.1,"13:36:08",1
"18/08/23","13:50",0.0,29.5,79.0,999.1,92.1,1.8,4.8,120.9,0.17,25.5,29.0,"13:46:56",1
"18/08/23","14:00",0.0,29.7,77.5,998.6,95.9,1.8,5.5,120.3,0.15,25.4,29.2,"13:58:32",1
"18/08/23","14:10",0.0,30.4,75.5,998.6,94.9,2.0,4.1,108.1,0.27,25.6,29.2,"14:03:12",1
"18/08/23","14:20",0.0,29.2,79.2,998.4,95.5,2.0,4.9,134.4,0.16,25.3,29.2,"14:13:28",1
"18/08/23","14:30",0.0,28.8,80.9,997.9,101.9,2.0,6.0,111.4,0.14,25.2,29.0,"14:28:32",1
"18/08/23","14:40",0.0,30.4,74.8,997.9,101.9,2.1,4.4,143.2,0.23,25.5,29.0,"14:33:36",1
"18/08/23","14:50",0.0,30.3,73.7,998.4,122.0,2.2,4.4,94.2,0.18,25.1,29.3,"14:41:04",1
"18/08/23","15:00",0.0,29.2,78.4,998.2,91.1,2.0,4.4,98.7,0.17,25.1,29.0,"14:57:44",1
"18/08/23","15:10",0.0,29.7,78.9,997.7,98.7,1.7,5.4,122.2,0.20,25.7,29.0,"15:01:12",1
"18/08/23","15:20",0.0,30.7,73.9,997.7,107.3,1.8,4.3,169.5,0.31,25.5,29.5,"15:18:32",1
"18/08/23","15:30",0.2,31.3,70.4,998.2,106.7,2.2,4.0,130.8,0.27,25.3,29.2,"15:28:16",1
"18/08/23","15:40",0.0,31.0,71.6,997.7,115.3,2.3,5.5,128.8,0.23,25.3,29.4,"15:32:24",1
"18/08/23","15:50",0.0,30.7,72.2,997.2,113.9,2.1,4.8,149.0,0.21,25.2,29.6,"15:45:20",1
"18/08/23","16:00",0.0,30.8,71.0,997.0,109.5,2.3,5.2,80.4,0.18,25.0,29.5,"15:55:12",1
"18/08/23","16:10",0.0,30.9,71.6,996.7,103.3,1.6,3.7,102.3,0.15,25.2,29.7,"16:00:16",1
"18/08/23","16:20",0.0,30.4,70.6,997.2,104.6,2.3,6.4,141.2,0.11,24.5,29.6,"16:10:02",1
"18/08/23","16:30",0.0,30.3,72.0,996.5,104.2,2.2,5.8,181.7,0.08,24.7,29.5,"16:20:32",1
"18/08/23","16:40",0.0,30.8,70.2,997.0,119.1,2.3,5.4,130.5,0.15,24.8,29.5,"16:33:28",1
"18/08/23","16:50",0.0,30.6,68.5,997.0,98.8,2.5,5.4,95.5,0.11,24.2,29.4,"16:43:52",1
"18/08/23","17:00",0.0,30.1,70.4,996.5,96.1,2.1,5.5,124.4,0.05,24.2,29.3,"16:50:56",1
"18/08/23","17:10",0.0,29.7,73.3,996.3,100.2,1.7,4.1,110.1,0.04,24.4,29.2,"17:06:48",1
"18/08/23","17:20",0.0,29.5,73.5,996.3,94.5,2.0,4.2,68.1,0.06,24.3,29.3,"17:16:56",1
"18/08/23","17:30",0.0,29.9,71.2,995.6,105.5,1.8,4.5,120.7,0.06,24.2,29.0,"17:29:36",1
"18/08/23","17:40",0.0,30.2,68.9,995.8,118.8,2.1,4.3,125.0,0.07,23.9,29.1,"17:36:00",1
"18/08/23","17:50",0.0,30.2,67.5,995.3,121.8,2.3,4.7,109.4,0.05,23.6,29.0,"17:40:24",1
"18/08/23","18:00",0.0,30.0,67.0,995.3,118.8,2.5,5.2,169.7,0.03,23.2,28.9,"17:53:20",1
"18/08/23","18:10",0.0,29.7,68.2,994.8,108.8,2.0,3.9,119.6,0.02,23.2,29.1,"18:06:00",1
"18/08/23","18:20",0.0,29.4,69.4,994.4,102.6,2.0,4.5,82.6,0.01,23.3,28.8,"18:10:56",1
"18/08/23","18:30",0.0,29.1,70.4,993.9,106.0,2.3,5.8,102.5,0.00,23.2,28.5,"18:23:36",1
"18/08/23","18:40",0.0,29.0,70.0,994.4,106.6,2.3,7.9,122.3,0.00,23.0,28.7,"18:36:16",1
"18/08/23","18:50",0.0,29.0,69.3,994.1,95.8,2.2,6.5,108.4,0.00,22.8,28.6,"18:40:32",1
"18/08/23","19:00",0.0,28.9,69.6,993.9,106.8,2.6,6.3,126.4,0.00,22.8,28.6,"18:54:16",1
"18/08/23","19:10",0.0,28.9,69.5,993.9,103.8,2.0,7.0,121.1,0.00,22.8,28.2,"19:09:04",1
"18/08/23","19:20",0.0,29.1,68.6,993.9,89.8,2.3,8.3,47.3,0.00,22.8,28.5,"19:13:44",1
"18/08/23","19:30",0.0,29.1,68.1,994.1,107.7,2.3,5.7,113.6,0.00,22.7,28.3,"19:23:44",1
"18/08/23","19:40",0.0,28.9,69.4,994.1,103.7,2.2,5.1,119.7,0.00,22.8,28.0,"19:35:28",1
"18/08/23","19:50",0.0,29.0,69.5,993.7,100.4,2.6,7.2,119.2,0.00,22.9,28.0,"19:47:04",1
"18/08/23","20:00",0.0,29.0,69.8,993.4,96.7,2.3,5.1,111.0,0.00,23.0,28.2,"19:52:16",1
"18/08/23","20:10",0.0,28.9,70.9,993.4,85.5,2.5,7.5,55.5,0.00,23.1,27.9,"20:01:04",1
"18/08/23","20:20",0.0,28.6,72.1,993.2,98.4,2.2,5.7,77.0,0.00,23.1,27.8,"20:16:32",1
"18/08/23","20:30",0.0,28.7,71.3,993.0,105.8,2.3,5.6,75.1,0.00,23.0,27.7,"20:28:56",1
"18/08/23","20:40",0.0,29.1,68.9,992.7,95.6,2.6,9.1,127.5,0.00,22.8,27.7,"20:30:24",1
"18/08/23","20:50",0.0,29.1,69.1,992.7,96.9,2.6,5.8,100.2,0.00,22.9,27.6,"20:40:32",1
"18/08/23","21:00",0.0,29.1,69.8,992.5,96.2,2.7,5.5,123.1,0.00,23.1,27.7,"20:52:40",1
"18/08/23","21:10",0.0,29.1,70.5,991.8,100.4,2.6,5.8,52.6,0.00,23.2,27.7,"21:00:48",1
"18/08/23","21:20",0.0,28.9,72.0,991.5,101.6,3.0,6.2,112.3,0.00,23.4,27.4,"21:12:32",1
"18/08/23","21:30",0.0,28.6,74.0,991.3,92.3,2.1,5.1,94.7,0.00,23.5,27.4,"21:24:58",1
"18/08/23","21:40",0.0,28.5,74.4,990.8,104.7,2.6,6.5,107.3,0.00,23.5,27.2,"21:39:20",1
"18/08/23","21:50",0.2,27.7,77.6,991.1,115.2,2.5,5.0,94.5,0.00,23.5,27.2,"21:40:16",1
"18/08/23","22:00",0.0,27.8,77.6,991.1,109.7,2.0,5.0,126.7,0.00,23.6,27.2,"21:50:02",1
"18/08/23","22:10",0.0,28.0,75.7,990.8,99.8,2.1,5.5,0.7,0.00,23.3,27.3,"22:05:36",1
"18/08/23","22:20",0.0,27.5,77.0,990.6,115.1,1.7,4.8,89.2,0.00,23.1,27.2,"22:17:36",1
"18/08/23","22:30",0.4,27.1,77.6,990.1,107.6,2.1,5.2,27.0,0.00,22.9,27.0,"22:26:56",1
"18/08/23","22:40",0.2,26.7,79.4,989.6,100.5,2.5,4.9,77.6,0.00,22.9,26.9,"22:31:28",1
"18/08/23","22:50",0.4,26.3,80.6,988.9,116.1,2.2,7.4,64.3,0.00,22.7,26.9,"22:41:52",1
"18/08/23","23:00",0.2,26.2,80.5,988.9,118.9,2.6,7.8,123.6,0.00,22.6,26.8,"22:50:56",1
"18/08/23","23:10",0.6,25.8,82.0,988.7,110.9,2.8,6.0,175.2,0.00,22.5,26.7,"23:08:16",1
"18/08/23","23:20",1.0,25.5,84.1,988.5,120.6,2.6,6.6,119.8,0.00,22.7,26.6,"23:14:32",1
"18/08/23","23:30",1.2,25.3,85.4,988.5,120.1,2.8,6.0,97.3,0.00,22.7,26.2,"23:21:20",1
"18/08/23","23:40",1.4,25.2,86.5,988.0,120.1,3.4,8.0,82.3,0.00,22.8,25.9,"23:32:32",1
"18/08/23","23:50",1.4,25.3,86.7,987.3,126.2,3.5,9.5,123.9,0.00,23.0,26.0,"23:42:40",1
"18/08/23","24:00",1.4,25.0,87.2,987.0,113.4,3.1,7.4,107.6,0.00,22.8,25.8,"23:50:16",1
